Year,Month,Day,Hour,Minute,Value (Times are PST for temperature in C)
2015,05,28,00,00,13.40
2015,05,28,00,01,13.40
2015,05,28,00,02,13.40
2015,05,28,00,03,13.40
2015,05,28,00,04,13.40
2015,05,28,00,05,13.40
2015,05,28,00,06,13.40
2015,05,28,00,07,13.40
2015,05,28,00,08,13.40
2015,05,28,00,09,13.40
2015,05,28,00,10,13.40
2015,05,28,00,11,13.50
2015,05,28,00,12,13.50
2015,05,28,00,13,13.50
2015,05,28,00,14,13.50
2015,05,28,00,15,13.50
2015,05,28,00,16,13.60
2015,05,28,00,17,13.60
2015,05,28,00,18,13.60
2015,05,28,00,19,13.60
2015,05,28,00,20,13.60
2015,05,28,00,21,13.60
2015,05,28,00,22,13.60
2015,05,28,00,23,13.50
2015,05,28,00,24,13.50
2015,05,28,00,25,13.50
2015,05,28,00,26,13.50
2015,05,28,00,27,13.50
2015,05,28,00,28,13.50
2015,05,28,00,29,13.50
2015,05,28,00,30,13.50
2015,05,28,00,31,13.50
2015,05,28,00,32,13.50
2015,05,28,00,33,13.50
2015,05,28,00,34,13.40
2015,05,28,00,35,13.40
2015,05,28,00,36,13.40
2015,05,28,00,37,13.40
2015,05,28,00,38,13.40
2015,05,28,00,39,13.40
2015,05,28,00,40,13.40
2015,05,28,00,41,13.40
2015,05,28,00,42,13.40
2015,05,28,00,43,13.40
2015,05,28,00,44,13.40
2015,05,28,00,45,13.40
2015,05,28,00,46,13.40
2015,05,28,00,47,13.40
2015,05,28,00,48,13.40
2015,05,28,00,49,13.40
2015,05,28,00,50,13.40
2015,05,28,00,51,13.40
2015,05,28,00,52,13.40
2015,05,28,00,53,13.40
2015,05,28,00,54,13.40
2015,05,28,00,55,13.40
2015,05,28,00,56,13.40
2015,05,28,00,57,13.40
2015,05,28,00,58,13.30
2015,05,28,00,59,13.30
2015,05,28,01,00,13.30
2015,05,28,01,01,13.30
2015,05,28,01,02,13.30
2015,05,28,01,03,13.30
2015,05,28,01,04,13.30
2015,05,28,01,05,13.30
2015,05,28,01,06,13.30
2015,05,28,01,07,13.30
2015,05,28,01,08,13.20
2015,05,28,01,09,13.20
2015,05,28,01,10,13.20
2015,05,28,01,11,13.20
2015,05,28,01,12,13.20
2015,05,28,01,13,13.20
2015,05,28,01,14,13.10
2015,05,28,01,15,13.10
2015,05,28,01,16,13.10
2015,05,28,01,17,13.10
2015,05,28,01,18,13.00
2015,05,28,01,19,13.00
2015,05,28,01,20,12.90
2015,05,28,01,21,12.90
2015,05,28,01,22,12.80
2015,05,28,01,23,12.80
2015,05,28,01,24,12.80
2015,05,28,01,25,12.80
2015,05,28,01,26,12.70
2015,05,28,01,27,12.70
2015,05,28,01,28,12.70
2015,05,28,01,29,12.70
2015,05,28,01,30,12.70
2015,05,28,01,31,12.60
2015,05,28,01,32,12.60
2015,05,28,01,33,12.60
2015,05,28,01,34,12.60
2015,05,28,01,35,12.60
2015,05,28,01,36,12.60
2015,05,28,01,37,12.50
2015,05,28,01,38,12.50
2015,05,28,01,39,12.50
2015,05,28,01,40,12.50
2015,05,28,01,41,12.40
2015,05,28,01,42,12.40
2015,05,28,01,43,12.40
2015,05,28,01,44,12.40
2015,05,28,01,45,12.40
2015,05,28,01,46,12.40
2015,05,28,01,47,12.40
2015,05,28,01,48,12.30
2015,05,28,01,49,12.30
2015,05,28,01,50,12.30
2015,05,28,01,51,12.30
2015,05,28,01,52,12.20
2015,05,28,01,53,12.20
2015,05,28,01,54,12.20
2015,05,28,01,55,12.20
2015,05,28,01,56,12.20
2015,05,28,01,57,12.10
2015,05,28,01,58,12.10
2015,05,28,01,59,12.10
2015,05,28,02,00,12.10
2015,05,28,02,01,12.10
2015,05,28,02,02,12.10
2015,05,28,02,03,12.10
2015,05,28,02,04,12.10
2015,05,28,02,05,12.10
2015,05,28,02,06,12.10
2015,05,28,02,07,12.10
2015,05,28,02,08,12.10
2015,05,28,02,09,12.00
2015,05,28,02,10,12.00
2015,05,28,02,11,12.00
2015,05,28,02,12,12.00
2015,05,28,02,13,12.00
2015,05,28,02,14,11.90
2015,05,28,02,15,11.90
2015,05,28,02,16,11.90
2015,05,28,02,17,11.90
2015,05,28,02,18,11.90
2015,05,28,02,19,11.90
2015,05,28,02,20,11.80
2015,05,28,02,21,11.80
2015,05,28,02,22,11.80
2015,05,28,02,23,11.80
2015,05,28,02,24,11.80
2015,05,28,02,25,11.80
2015,05,28,02,26,11.70
2015,05,28,02,27,11.70
2015,05,28,02,28,11.70
2015,05,28,02,29,11.70
2015,05,28,02,30,11.70
2015,05,28,02,31,11.70
2015,05,28,02,32,11.70
2015,05,28,02,33,11.60
2015,05,28,02,34,11.60
2015,05,28,02,35,11.60
2015,05,28,02,36,11.60
2015,05,28,02,37,11.60
2015,05,28,02,38,11.60
2015,05,28,02,39,11.60
2015,05,28,02,40,11.50
2015,05,28,02,41,11.50
2015,05,28,02,42,11.50
2015,05,28,02,43,11.50
2015,05,28,02,44,11.50
2015,05,28,02,45,11.50
2015,05,28,02,46,11.50
2015,05,28,02,47,11.50
2015,05,28,02,48,11.50
2015,05,28,02,49,11.50
2015,05,28,02,50,11.40
2015,05,28,02,51,11.40
2015,05,28,02,52,11.40
2015,05,28,02,53,11.40
2015,05,28,02,54,11.40
2015,05,28,02,55,11.40
2015,05,28,02,56,11.40
2015,05,28,02,57,11.40
2015,05,28,02,58,11.40
2015,05,28,02,59,11.40
2015,05,28,03,00,11.40
2015,05,28,03,01,11.40
2015,05,28,03,02,11.40
2015,05,28,03,03,11.40
2015,05,28,03,04,11.40
2015,05,28,03,05,11.30
2015,05,28,03,06,11.30
2015,05,28,03,07,11.30
2015,05,28,03,08,11.30
2015,05,28,03,09,11.30
2015,05,28,03,10,11.30
2015,05,28,03,11,11.30
2015,05,28,03,12,11.30
2015,05,28,03,13,11.30
2015,05,28,03,14,11.30
2015,05,28,03,15,11.30
2015,05,28,03,16,11.30
2015,05,28,03,17,11.30
2015,05,28,03,18,11.30
2015,05,28,03,19,11.20
2015,05,28,03,20,11.20
2015,05,28,03,21,11.20
2015,05,28,03,22,11.20
2015,05,28,03,23,11.20
2015,05,28,03,24,11.20
2015,05,28,03,25,11.20
2015,05,28,03,26,11.20
2015,05,28,03,27,11.20
2015,05,28,03,28,11.20
2015,05,28,03,29,11.20
2015,05,28,03,30,11.20
2015,05,28,03,31,11.10
2015,05,28,03,32,11.10
2015,05,28,03,33,11.10
2015,05,28,03,34,11.10
2015,05,28,03,35,11.10
2015,05,28,03,36,11.10
2015,05,28,03,37,11.10
2015,05,28,03,38,11.10
2015,05,28,03,39,11.00
2015,05,28,03,40,11.00
2015,05,28,03,41,11.00
2015,05,28,03,42,11.00
2015,05,28,03,43,11.00
2015,05,28,03,44,11.00
2015,05,28,03,45,11.00
2015,05,28,03,46,11.00
2015,05,28,03,47,10.90
2015,05,28,03,48,10.90
2015,05,28,03,49,10.90
2015,05,28,03,50,10.90
2015,05,28,03,51,10.90
2015,05,28,03,52,10.90
2015,05,28,03,53,10.90
2015,05,28,03,54,10.90
2015,05,28,03,55,10.90
2015,05,28,03,56,10.90
2015,05,28,03,57,10.90
2015,05,28,03,58,10.90
2015,05,28,03,59,10.90
2015,05,28,04,00,10.90
2015,05,28,04,01,10.90
2015,05,28,04,02,10.90
2015,05,28,04,03,10.90
2015,05,28,04,04,10.90
2015,05,28,04,05,10.90
2015,05,28,04,06,10.90
2015,05,28,04,07,10.90
2015,05,28,04,08,10.90
2015,05,28,04,09,10.90
2015,05,28,04,10,10.90
2015,05,28,04,11,10.90
2015,05,28,04,12,10.90
2015,05,28,04,13,10.80
2015,05,28,04,14,10.80
2015,05,28,04,15,10.80
2015,05,28,04,16,10.80
2015,05,28,04,17,10.80
2015,05,28,04,18,10.80
2015,05,28,04,19,10.80
2015,05,28,04,20,10.80
2015,05,28,04,21,10.80
2015,05,28,04,22,10.80
2015,05,28,04,23,10.80
2015,05,28,04,24,10.80
2015,05,28,04,25,10.80
2015,05,28,04,26,10.80
2015,05,28,04,27,10.80
2015,05,28,04,28,10.80
2015,05,28,04,29,10.80
2015,05,28,04,30,10.80
2015,05,28,04,31,10.80
2015,05,28,04,32,10.80
2015,05,28,04,33,10.80
2015,05,28,04,34,10.80
2015,05,28,04,35,10.70
2015,05,28,04,36,10.70
2015,05,28,04,37,10.70
2015,05,28,04,38,10.70
2015,05,28,04,39,10.70
2015,05,28,04,40,10.70
2015,05,28,04,41,10.70
2015,05,28,04,42,10.70
2015,05,28,04,43,10.70
2015,05,28,04,44,10.70
2015,05,28,04,45,10.70
2015,05,28,04,46,10.70
2015,05,28,04,47,10.70
2015,05,28,04,48,10.70
2015,05,28,04,49,10.70
2015,05,28,04,50,10.70
2015,05,28,04,51,10.70
2015,05,28,04,52,10.70
2015,05,28,04,53,10.70
2015,05,28,04,54,10.70
2015,05,28,04,55,10.70
2015,05,28,04,56,10.70
2015,05,28,04,57,10.70
2015,05,28,04,58,10.70
2015,05,28,04,59,10.70
2015,05,28,05,00,10.70
2015,05,28,05,01,10.70
2015,05,28,05,02,10.70
2015,05,28,05,03,10.70
2015,05,28,05,04,10.60
2015,05,28,05,05,10.60
2015,05,28,05,06,10.60
2015,05,28,05,07,10.60
2015,05,28,05,08,10.60
2015,05,28,05,09,10.60
2015,05,28,05,10,10.60
2015,05,28,05,11,10.60
2015,05,28,05,12,10.60
2015,05,28,05,13,10.60
2015,05,28,05,14,10.60
2015,05,28,05,15,10.60
2015,05,28,05,16,10.60
2015,05,28,05,17,10.60
2015,05,28,05,18,10.60
2015,05,28,05,19,10.60
2015,05,28,05,20,10.60
2015,05,28,05,21,10.60
2015,05,28,05,22,10.60
2015,05,28,05,23,10.60
2015,05,28,05,24,10.60
2015,05,28,05,25,10.60
2015,05,28,05,26,10.60
2015,05,28,05,27,10.60
2015,05,28,05,28,10.60
2015,05,28,05,29,10.60
2015,05,28,05,30,10.60
2015,05,28,05,31,10.60
2015,05,28,05,32,10.50
2015,05,28,05,33,10.50
2015,05,28,05,34,10.50
2015,05,28,05,35,10.50
2015,05,28,05,36,10.50
2015,05,28,05,37,10.50
2015,05,28,05,38,10.50
2015,05,28,05,39,10.50
2015,05,28,05,40,10.50
2015,05,28,05,41,10.40
2015,05,28,05,42,10.40
2015,05,28,05,43,10.40
2015,05,28,05,44,10.40
2015,05,28,05,45,10.40
2015,05,28,05,46,10.40
2015,05,28,05,47,10.40
2015,05,28,05,48,10.40
2015,05,28,05,49,10.40
2015,05,28,05,50,10.40
2015,05,28,05,51,10.40
2015,05,28,05,52,10.40
2015,05,28,05,53,10.40
2015,05,28,05,54,10.40
2015,05,28,05,55,10.40
2015,05,28,05,56,10.40
2015,05,28,05,57,10.40
2015,05,28,05,58,10.40
2015,05,28,05,59,10.40
2015,05,28,06,00,10.50
2015,05,28,06,01,10.50
2015,05,28,06,02,10.50
2015,05,28,06,03,10.50
2015,05,28,06,04,10.50
2015,05,28,06,05,10.60
2015,05,28,06,06,10.60
2015,05,28,06,07,10.60
2015,05,28,06,08,10.60
2015,05,28,06,09,10.60
2015,05,28,06,10,10.70
2015,05,28,06,11,10.70
2015,05,28,06,12,10.70
2015,05,28,06,13,10.70
2015,05,28,06,14,10.70
2015,05,28,06,15,10.70
2015,05,28,06,16,10.80
2015,05,28,06,17,10.80
2015,05,28,06,18,10.80
2015,05,28,06,19,10.80
2015,05,28,06,20,10.80
2015,05,28,06,21,10.80
2015,05,28,06,22,10.90
2015,05,28,06,23,10.90
2015,05,28,06,24,10.90
2015,05,28,06,25,10.90
2015,05,28,06,26,10.90
2015,05,28,06,27,11.00
2015,05,28,06,28,11.00
2015,05,28,06,29,11.00
2015,05,28,06,30,11.10
2015,05,28,06,31,11.10
2015,05,28,06,32,11.10
2015,05,28,06,33,11.20
2015,05,28,06,34,11.20
2015,05,28,06,35,11.20
2015,05,28,06,36,11.20
2015,05,28,06,37,11.20
2015,05,28,06,38,11.30
2015,05,28,06,39,11.30
2015,05,28,06,40,11.30
2015,05,28,06,41,11.30
2015,05,28,06,42,11.30
2015,05,28,06,43,11.30
2015,05,28,06,44,11.40
2015,05,28,06,45,11.40
2015,05,28,06,46,11.40
2015,05,28,06,47,11.40
2015,05,28,06,48,11.40
2015,05,28,06,49,11.40
2015,05,28,06,50,11.50
2015,05,28,06,51,11.50
2015,05,28,06,52,11.50
2015,05,28,06,53,11.50
2015,05,28,06,54,11.60
2015,05,28,06,55,11.60
2015,05,28,06,56,11.60
2015,05,28,06,57,11.60
2015,05,28,06,58,11.70
2015,05,28,06,59,11.70
2015,05,28,07,00,11.70
2015,05,28,07,01,11.80
2015,05,28,07,02,11.80
2015,05,28,07,03,11.80
2015,05,28,07,04,11.80
2015,05,28,07,05,11.90
2015,05,28,07,06,11.90
2015,05,28,07,07,11.90
2015,05,28,07,08,12.00
2015,05,28,07,09,12.00
2015,05,28,07,10,12.10
2015,05,28,07,11,12.10
2015,05,28,07,12,12.20
2015,05,28,07,13,12.20
2015,05,28,07,14,12.20
2015,05,28,07,15,12.30
2015,05,28,07,16,12.30
2015,05,28,07,17,12.40
2015,05,28,07,18,12.40
2015,05,28,07,19,12.50
2015,05,28,07,20,12.50
2015,05,28,07,21,12.50
2015,05,28,07,22,12.60
2015,05,28,07,23,12.60
2015,05,28,07,24,12.60
2015,05,28,07,25,12.70
2015,05,28,07,26,12.70
2015,05,28,07,27,12.70
2015,05,28,07,28,12.70
2015,05,28,07,29,12.80
2015,05,28,07,30,12.80
2015,05,28,07,31,12.80
2015,05,28,07,32,12.80
2015,05,28,07,33,12.80
2015,05,28,07,34,12.80
2015,05,28,07,35,12.80
2015,05,28,07,36,12.80
2015,05,28,07,37,12.80
2015,05,28,07,38,12.80
2015,05,28,07,39,12.80
2015,05,28,07,40,12.80
2015,05,28,07,41,12.90
2015,05,28,07,42,12.90
2015,05,28,07,43,12.90
2015,05,28,07,44,12.90
2015,05,28,07,45,13.00
2015,05,28,07,46,13.00
2015,05,28,07,47,13.00
2015,05,28,07,48,13.00
2015,05,28,07,49,13.10
2015,05,28,07,50,13.10
2015,05,28,07,51,13.10
2015,05,28,07,52,13.10
2015,05,28,07,53,13.20
2015,05,28,07,54,13.20
2015,05,28,07,55,13.30
2015,05,28,07,56,13.30
2015,05,28,07,57,13.30
2015,05,28,07,58,13.40
2015,05,28,07,59,13.40
2015,05,28,08,00,13.40
2015,05,28,08,01,13.40
2015,05,28,08,02,13.50
2015,05,28,08,03,13.50
2015,05,28,08,04,13.50
2015,05,28,08,05,13.60
2015,05,28,08,06,13.60
2015,05,28,08,07,13.60
2015,05,28,08,08,13.70
2015,05,28,08,09,13.70
2015,05,28,08,10,13.70
2015,05,28,08,11,13.80
2015,05,28,08,12,13.80
2015,05,28,08,13,13.80
2015,05,28,08,14,13.80
2015,05,28,08,15,13.80
2015,05,28,08,16,13.80
2015,05,28,08,17,13.70
2015,05,28,08,18,13.70
2015,05,28,08,19,13.70
2015,05,28,08,20,13.70
2015,05,28,08,21,13.70
2015,05,28,08,22,13.70
2015,05,28,08,23,13.70
2015,05,28,08,24,13.70
2015,05,28,08,25,13.70
2015,05,28,08,26,13.70
2015,05,28,08,27,13.80
2015,05,28,08,28,13.80
2015,05,28,08,29,13.90
2015,05,28,08,30,13.90
2015,05,28,08,31,13.90
2015,05,28,08,32,14.00
2015,05,28,08,33,14.10
2015,05,28,08,34,14.10
2015,05,28,08,35,14.20
2015,05,28,08,36,14.20
2015,05,28,08,37,14.30
2015,05,28,08,38,14.30
2015,05,28,08,39,14.20
2015,05,28,08,40,14.20
2015,05,28,08,41,14.20
2015,05,28,08,42,14.10
2015,05,28,08,43,13.90
2015,05,28,08,44,13.80
2015,05,28,08,45,13.70
2015,05,28,08,46,13.60
2015,05,28,08,47,13.50
2015,05,28,08,48,13.40
2015,05,28,08,49,13.30
2015,05,28,08,50,13.30
2015,05,28,08,51,13.30
2015,05,28,08,52,13.20
2015,05,28,08,53,13.20
2015,05,28,08,54,13.20
2015,05,28,08,55,13.20
2015,05,28,08,56,13.30
2015,05,28,08,57,13.30
2015,05,28,08,58,13.30
2015,05,28,08,59,13.30
2015,05,28,09,00,13.30
2015,05,28,09,01,13.30
2015,05,28,09,02,13.30
2015,05,28,09,03,13.30
2015,05,28,09,04,13.30
2015,05,28,09,05,13.30
2015,05,28,09,06,13.20
2015,05,28,09,07,13.20
2015,05,28,09,08,13.20
2015,05,28,09,09,13.20
2015,05,28,09,10,13.20
2015,05,28,09,11,13.30
2015,05,28,09,12,13.40
2015,05,28,09,13,13.50
2015,05,28,09,14,13.50
2015,05,28,09,15,13.60
2015,05,28,09,16,13.60
2015,05,28,09,17,13.70
2015,05,28,09,18,13.70
2015,05,28,09,19,13.70
2015,05,28,09,20,13.80
2015,05,28,09,21,13.80
2015,05,28,09,22,13.80
2015,05,28,09,23,13.80
2015,05,28,09,24,13.80
2015,05,28,09,25,13.80
2015,05,28,09,26,13.80
2015,05,28,09,27,13.80
2015,05,28,09,28,13.80
2015,05,28,09,29,13.90
2015,05,28,09,30,14.00
2015,05,28,09,31,14.10
2015,05,28,09,32,14.20
2015,05,28,09,33,14.30
2015,05,28,09,34,14.30
2015,05,28,09,35,14.30
2015,05,28,09,36,14.30
2015,05,28,09,37,14.20
2015,05,28,09,38,14.20
2015,05,28,09,39,14.30
2015,05,28,09,40,14.30
2015,05,28,09,41,14.30
2015,05,28,09,42,14.30
2015,05,28,09,43,14.30
2015,05,28,09,44,14.30
2015,05,28,09,45,14.30
2015,05,28,09,46,14.30
2015,05,28,09,47,14.30
2015,05,28,09,48,14.40
2015,05,28,09,49,14.40
2015,05,28,09,50,14.50
2015,05,28,09,51,14.60
2015,05,28,09,52,14.70
2015,05,28,09,53,14.70
2015,05,28,09,54,14.80
2015,05,28,09,55,14.90
2015,05,28,09,56,15.00
2015,05,28,09,57,15.10
2015,05,28,09,58,15.20
2015,05,28,09,59,15.30
2015,05,28,10,00,15.40
2015,05,28,10,01,15.40
2015,05,28,10,02,15.40
2015,05,28,10,03,15.50
2015,05,28,10,04,15.50
2015,05,28,10,05,15.60
2015,05,28,10,06,15.70
2015,05,28,10,07,15.70
2015,05,28,10,08,15.70
2015,05,28,10,09,15.70
2015,05,28,10,10,15.70
2015,05,28,10,11,15.80
2015,05,28,10,12,15.90
2015,05,28,10,13,16.00
2015,05,28,10,14,16.00
2015,05,28,10,15,16.10
2015,05,28,10,16,16.20
2015,05,28,10,17,16.20
2015,05,28,10,18,16.30
2015,05,28,10,19,16.30
2015,05,28,10,20,16.20
2015,05,28,10,21,16.20
2015,05,28,10,22,16.20
2015,05,28,10,23,16.30
2015,05,28,10,24,16.30
2015,05,28,10,25,16.40
2015,05,28,10,26,16.40
2015,05,28,10,27,16.40
2015,05,28,10,28,16.40
2015,05,28,10,29,16.30
2015,05,28,10,30,16.30
2015,05,28,10,31,16.20
2015,05,28,10,32,16.00
2015,05,28,10,33,15.90
2015,05,28,10,34,15.90
2015,05,28,10,35,15.80
2015,05,28,10,36,15.80
2015,05,28,10,37,15.80
2015,05,28,10,38,15.80
2015,05,28,10,39,15.70
2015,05,28,10,40,15.70
2015,05,28,10,41,15.70
2015,05,28,10,42,15.70
2015,05,28,10,43,15.70
2015,05,28,10,44,15.70
2015,05,28,10,45,15.80
2015,05,28,10,46,15.90
2015,05,28,10,47,16.00
2015,05,28,10,48,16.10
2015,05,28,10,49,16.10
2015,05,28,10,50,16.20
2015,05,28,10,51,16.20
2015,05,28,10,52,16.20
2015,05,28,10,53,16.20
2015,05,28,10,54,16.20
2015,05,28,10,55,16.20
2015,05,28,10,56,16.20
2015,05,28,10,57,16.10
2015,05,28,10,58,16.20
2015,05,28,10,59,16.30
2015,05,28,11,00,16.30
2015,05,28,11,01,16.40
2015,05,28,11,02,16.40
2015,05,28,11,03,16.30
2015,05,28,11,04,16.40
2015,05,28,11,05,16.40
2015,05,28,11,06,16.50
2015,05,28,11,07,16.60
2015,05,28,11,08,16.60
2015,05,28,11,09,16.60
2015,05,28,11,10,16.60
2015,05,28,11,11,16.60
2015,05,28,11,12,16.60
2015,05,28,11,13,16.60
2015,05,28,11,14,16.60
2015,05,28,11,15,16.60
2015,05,28,11,16,16.70
2015,05,28,11,17,16.80
2015,05,28,11,18,16.90
2015,05,28,11,19,16.90
2015,05,28,11,20,16.90
2015,05,28,11,21,17.00
2015,05,28,11,22,17.00
2015,05,28,11,23,17.10
2015,05,28,11,24,17.10
2015,05,28,11,25,17.10
2015,05,28,11,26,17.10
2015,05,28,11,27,17.10
2015,05,28,11,28,17.10
2015,05,28,11,29,17.20
2015,05,28,11,30,17.20
2015,05,28,11,31,17.20
2015,05,28,11,32,17.20
2015,05,28,11,33,17.20
2015,05,28,11,34,17.20
2015,05,28,11,35,17.20
2015,05,28,11,36,17.30
2015,05,28,11,37,17.30
2015,05,28,11,38,17.30
2015,05,28,11,39,17.30
2015,05,28,11,40,17.40
2015,05,28,11,41,17.40
2015,05,28,11,42,17.40
2015,05,28,11,43,17.40
2015,05,28,11,44,17.40
2015,05,28,11,45,17.50
2015,05,28,11,46,17.50
2015,05,28,11,47,17.60
2015,05,28,11,48,17.70
2015,05,28,11,49,17.80
2015,05,28,11,50,17.80
2015,05,28,11,51,17.90
2015,05,28,11,52,17.90
2015,05,28,11,53,18.00
2015,05,28,11,54,18.00
2015,05,28,11,55,18.00
2015,05,28,11,56,18.10
2015,05,28,11,57,18.20
2015,05,28,11,58,18.20
2015,05,28,11,59,18.20
2015,05,28,12,00,18.30
2015,05,28,12,01,18.30
2015,05,28,12,02,18.30
2015,05,28,12,03,18.20
2015,05,28,12,04,18.20
2015,05,28,12,05,18.20
2015,05,28,12,06,18.20
2015,05,28,12,07,18.20
2015,05,28,12,08,18.30
2015,05,28,12,09,18.30
2015,05,28,12,10,18.40
2015,05,28,12,11,18.40
2015,05,28,12,12,18.40
2015,05,28,12,13,18.50
2015,05,28,12,14,18.50
2015,05,28,12,15,18.60
2015,05,28,12,16,18.60
2015,05,28,12,17,18.60
2015,05,28,12,18,18.70
2015,05,28,12,19,18.70
2015,05,28,12,20,18.80
2015,05,28,12,21,18.90
2015,05,28,12,22,19.00
2015,05,28,12,23,19.10
2015,05,28,12,24,19.20
2015,05,28,12,25,19.20
2015,05,28,12,26,19.20
2015,05,28,12,27,19.20
2015,05,28,12,28,19.20
2015,05,28,12,29,19.20
2015,05,28,12,30,19.20
2015,05,28,12,31,19.10
2015,05,28,12,32,19.10
2015,05,28,12,33,18.90
2015,05,28,12,34,18.70
2015,05,28,12,35,18.70
2015,05,28,12,36,18.70
2015,05,28,12,37,18.80
2015,05,28,12,38,18.70
2015,05,28,12,39,18.70
2015,05,28,12,40,18.70
2015,05,28,12,41,18.60
2015,05,28,12,42,18.70
2015,05,28,12,43,18.80
2015,05,28,12,44,18.80
2015,05,28,12,45,18.80
2015,05,28,12,46,18.70
2015,05,28,12,47,18.70
2015,05,28,12,48,18.60
2015,05,28,12,49,18.60
2015,05,28,12,50,18.50
2015,05,28,12,51,18.50
2015,05,28,12,52,18.40
2015,05,28,12,53,18.30
2015,05,28,12,54,18.20
2015,05,28,12,55,18.20
2015,05,28,12,56,18.20
2015,05,28,12,57,18.20
2015,05,28,12,58,18.30
2015,05,28,12,59,18.30
2015,05,28,13,00,18.30
2015,05,28,13,01,18.20
2015,05,28,13,02,18.10
2015,05,28,13,03,18.10
2015,05,28,13,04,18.10
2015,05,28,13,05,18.10
2015,05,28,13,06,18.20
2015,05,28,13,07,18.30
2015,05,28,13,08,18.30
2015,05,28,13,09,18.30
2015,05,28,13,10,18.40
2015,05,28,13,11,18.40
2015,05,28,13,12,18.40
2015,05,28,13,13,18.50
2015,05,28,13,14,18.60
2015,05,28,13,15,18.60
2015,05,28,13,16,18.60
2015,05,28,13,17,18.60
2015,05,28,13,18,18.60
2015,05,28,13,19,18.60
2015,05,28,13,20,18.60
2015,05,28,13,21,18.70
2015,05,28,13,22,18.70
2015,05,28,13,23,18.80
2015,05,28,13,24,18.80
2015,05,28,13,25,18.80
2015,05,28,13,26,18.80
2015,05,28,13,27,18.80
2015,05,28,13,28,18.90
2015,05,28,13,29,19.00
2015,05,28,13,30,19.10
2015,05,28,13,31,19.10
2015,05,28,13,32,19.10
2015,05,28,13,33,19.10
2015,05,28,13,34,19.10
2015,05,28,13,35,19.10
2015,05,28,13,36,19.10
2015,05,28,13,37,19.20
2015,05,28,13,38,19.30
2015,05,28,13,39,19.30
2015,05,28,13,40,19.40
2015,05,28,13,41,19.40
2015,05,28,13,42,19.40
2015,05,28,13,43,19.50
2015,05,28,13,44,19.60
2015,05,28,13,45,19.70
2015,05,28,13,46,19.70
2015,05,28,13,47,19.60
2015,05,28,13,48,19.50
2015,05,28,13,49,19.40
2015,05,28,13,50,19.30
2015,05,28,13,51,19.20
2015,05,28,13,52,19.10
2015,05,28,13,53,19.10
2015,05,28,13,54,19.10
2015,05,28,13,55,19.10
2015,05,28,13,56,19.10
2015,05,28,13,57,19.10
2015,05,28,13,58,19.10
2015,05,28,13,59,19.10
2015,05,28,14,00,19.10
2015,05,28,14,01,19.10
2015,05,28,14,02,19.20
2015,05,28,14,03,19.20
2015,05,28,14,04,19.10
2015,05,28,14,05,19.20
2015,05,28,14,06,19.20
2015,05,28,14,07,19.10
2015,05,28,14,08,19.10
2015,05,28,14,09,19.10
2015,05,28,14,10,19.10
2015,05,28,14,11,19.00
2015,05,28,14,12,19.10
2015,05,28,14,13,19.20
2015,05,28,14,14,19.30
2015,05,28,14,15,19.30
2015,05,28,14,16,19.30
2015,05,28,14,17,19.20
2015,05,28,14,18,19.00
2015,05,28,14,19,18.90
2015,05,28,14,20,18.90
2015,05,28,14,21,19.00
2015,05,28,14,22,18.90
2015,05,28,14,23,18.90
2015,05,28,14,24,18.90
2015,05,28,14,25,19.00
2015,05,28,14,26,19.00
2015,05,28,14,27,19.10
2015,05,28,14,28,19.10
2015,05,28,14,29,19.20
2015,05,28,14,30,19.30
2015,05,28,14,31,19.30
2015,05,28,14,32,19.40
2015,05,28,14,33,19.40
2015,05,28,14,34,19.50
2015,05,28,14,35,19.60
2015,05,28,14,36,19.60
2015,05,28,14,37,19.60
2015,05,28,14,38,19.60
2015,05,28,14,39,19.60
2015,05,28,14,40,19.60
2015,05,28,14,41,19.70
2015,05,28,14,42,19.70
2015,05,28,14,43,19.70
2015,05,28,14,44,19.80
2015,05,28,14,45,19.90
2015,05,28,14,46,20.00
2015,05,28,14,47,20.00
2015,05,28,14,48,20.00
2015,05,28,14,49,20.00
2015,05,28,14,50,20.00
2015,05,28,14,51,20.10
2015,05,28,14,52,20.20
2015,05,28,14,53,20.20
2015,05,28,14,54,20.40
2015,05,28,14,55,20.50
2015,05,28,14,56,20.50
2015,05,28,14,57,20.60
2015,05,28,14,58,20.60
2015,05,28,14,59,20.70
2015,05,28,15,00,20.70
2015,05,28,15,01,20.60
2015,05,28,15,02,20.60
2015,05,28,15,03,20.70
2015,05,28,15,04,20.70
2015,05,28,15,05,20.70
2015,05,28,15,06,20.80
2015,05,28,15,07,20.70
2015,05,28,15,08,20.70
2015,05,28,15,09,20.80
2015,05,28,15,10,20.80
2015,05,28,15,11,20.80
2015,05,28,15,12,20.80
2015,05,28,15,13,20.90
2015,05,28,15,14,20.90
2015,05,28,15,15,21.00
2015,05,28,15,16,21.10
2015,05,28,15,17,21.10
2015,05,28,15,18,21.10
2015,05,28,15,19,21.00
2015,05,28,15,20,21.00
2015,05,28,15,21,21.00
2015,05,28,15,22,21.10
2015,05,28,15,23,21.10
2015,05,28,15,24,21.10
2015,05,28,15,25,21.10
2015,05,28,15,26,21.10
2015,05,28,15,27,21.20
2015,05,28,15,28,21.20
2015,05,28,15,29,21.30
2015,05,28,15,30,21.30
2015,05,28,15,31,21.30
2015,05,28,15,32,21.40
2015,05,28,15,33,21.30
2015,05,28,15,34,21.30
2015,05,28,15,35,21.30
2015,05,28,15,36,21.30
2015,05,28,15,37,21.30
2015,05,28,15,38,21.40
2015,05,28,15,39,21.40
2015,05,28,15,40,21.50
2015,05,28,15,41,21.50
2015,05,28,15,42,21.30
2015,05,28,15,43,21.20
2015,05,28,15,44,21.20
2015,05,28,15,45,21.20
2015,05,28,15,46,21.10
2015,05,28,15,47,21.00
2015,05,28,15,48,20.90
2015,05,28,15,49,20.80
2015,05,28,15,50,20.80
2015,05,28,15,51,20.80
2015,05,28,15,52,20.80
2015,05,28,15,53,20.80
2015,05,28,15,54,20.80
2015,05,28,15,55,20.80
2015,05,28,15,56,20.70
2015,05,28,15,57,20.70
2015,05,28,15,58,20.80
2015,05,28,15,59,20.80
2015,05,28,16,00,20.80
2015,05,28,16,01,20.70
2015,05,28,16,02,20.70
2015,05,28,16,03,20.80
2015,05,28,16,04,20.80
2015,05,28,16,05,20.80
2015,05,28,16,06,20.70
2015,05,28,16,07,20.70
2015,05,28,16,08,20.70
2015,05,28,16,09,20.70
2015,05,28,16,10,20.80
2015,05,28,16,11,20.80
2015,05,28,16,12,20.90
2015,05,28,16,13,20.90
2015,05,28,16,14,20.90
2015,05,28,16,15,20.90
2015,05,28,16,16,20.90
2015,05,28,16,17,20.80
2015,05,28,16,18,20.80
2015,05,28,16,19,20.80
2015,05,28,16,20,20.70
2015,05,28,16,21,20.70
2015,05,28,16,22,20.80
2015,05,28,16,23,20.80
2015,05,28,16,24,20.90
2015,05,28,16,25,20.90
2015,05,28,16,26,20.90
2015,05,28,16,27,20.90
2015,05,28,16,28,20.90
2015,05,28,16,29,20.80
2015,05,28,16,30,20.80
2015,05,28,16,31,20.80
2015,05,28,16,32,20.70
2015,05,28,16,33,20.70
2015,05,28,16,34,20.70
2015,05,28,16,35,20.70
2015,05,28,16,36,20.70
2015,05,28,16,37,20.70
2015,05,28,16,38,20.70
2015,05,28,16,39,20.80
2015,05,28,16,40,20.90
2015,05,28,16,41,20.90
2015,05,28,16,42,20.90
2015,05,28,16,43,20.90
2015,05,28,16,44,20.90
2015,05,28,16,45,20.80
2015,05,28,16,46,20.80
2015,05,28,16,47,20.90
2015,05,28,16,48,20.80
2015,05,28,16,49,20.80
2015,05,28,16,50,20.80
2015,05,28,16,51,20.80
2015,05,28,16,52,20.80
2015,05,28,16,53,20.80
2015,05,28,16,54,20.90
2015,05,28,16,55,20.90
2015,05,28,16,56,20.90
2015,05,28,16,57,20.80
2015,05,28,16,58,20.60
2015,05,28,16,59,20.50
2015,05,28,17,00,20.50
2015,05,28,17,01,20.50
2015,05,28,17,02,20.50
2015,05,28,17,03,20.60
2015,05,28,17,04,20.60
2015,05,28,17,05,20.60
2015,05,28,17,06,20.80
2015,05,28,17,07,20.90
2015,05,28,17,08,21.00
2015,05,28,17,09,21.00
2015,05,28,17,10,21.00
2015,05,28,17,11,20.90
2015,05,28,17,12,20.90
2015,05,28,17,13,20.90
2015,05,28,17,14,20.90
2015,05,28,17,15,20.90
2015,05,28,17,16,20.90
2015,05,28,17,17,20.90
2015,05,28,17,18,20.90
2015,05,28,17,19,21.00